TimeEST,TemperatureF,Dew PointF,Humidity,Sea Level PressureIn,VisibilityMPH,Wind Direction,Wind SpeedMPH,Gust SpeedMPH,PrecipitationIn,Events,Conditions,WindDirDegrees,DateUTC
12:53 AM,48.9,39.9,71,30.39,10.0,Variable,3.5,-,N/A,,Clear,0,2013-11-14 05:53:00
1:53 AM,46.9,39.9,77,30.37,10.0,NNW,8.1,-,N/A,,Clear,340,2013-11-14 06:53:00
2:53 AM,46.0,39.9,79,30.36,10.0,NNW,8.1,-,N/A,,Clear,340,2013-11-14 07:53:00
3:53 AM,46.0,39.9,79,30.35,10.0,NNW,8.1,-,N/A,,Clear,340,2013-11-14 08:53:00
4:53 AM,46.0,39.9,79,30.35,10.0,NNW,9.2,-,N/A,,Partly Cloudy,330,2013-11-14 09:53:00
5:53 AM,46.0,41.0,83,30.35,10.0,North,9.2,-,N/A,,Partly Cloudy,350,2013-11-14 10:53:00
6:53 AM,46.9,42.1,83,30.36,10.0,North,10.4,-,N/A,,Clear,350,2013-11-14 11:53:00
7:53 AM,48.9,44.1,83,30.37,10.0,North,10.4,-,N/A,,Scattered Clouds,350,2013-11-14 12:53:00
8:53 AM,54.0,46.0,75,30.38,10.0,North,10.4,-,N/A,,Scattered Clouds,350,2013-11-14 13:53:00
9:53 AM,60.1,50.0,69,30.39,10.0,North,10.4,-,N/A,,Scattered Clouds,350,2013-11-14 14:53:00
10:53 AM,64.0,54.0,70,30.38,10.0,NNE,16.1,20.7,N/A,,Scattered Clouds,20,2013-11-14 15:53:00
11:30 AM,64.4,53.6,68,30.38,10.0,NNE,16.1,23.0,N/A,,Overcast,20,2013-11-14 16:30:00
11:53 AM,64.9,54.0,68,30.37,10.0,NNE,13.8,25.3,N/A,,Overcast,20,2013-11-14 16:53:00
12:53 PM,64.9,55.0,70,30.35,10.0,NNE,16.1,23.0,N/A,,Overcast,30,2013-11-14 17:53:00
1:53 PM,64.9,55.0,70,30.32,10.0,NNE,16.1,23.0,N/A,,Overcast,30,2013-11-14 18:53:00
2:53 PM,64.0,55.0,73,30.31,10.0,NNE,13.8,23.0,N/A,,Overcast,30,2013-11-14 19:53:00
3:53 PM,64.0,55.9,75,30.30,10.0,NNE,13.8,-,N/A,,Overcast,20,2013-11-14 20:53:00
4:05 PM,64.4,55.4,73,30.30,10.0,NNE,12.7,20.7,N/A,,Overcast,30,2013-11-14 21:05:00
4:49 PM,62.6,55.4,77,30.29,10.0,NNE,11.5,18.4,N/A,,Overcast,20,2013-11-14 21:49:00
4:53 PM,63.0,55.9,78,30.29,10.0,NNE,11.5,-,N/A,,Overcast,30,2013-11-14 21:53:00
5:53 PM,63.0,55.9,78,30.29,10.0,NNE,9.2,-,N/A,,Overcast,20,2013-11-14 22:53:00
6:53 PM,63.0,57.0,81,30.28,10.0,North,8.1,-,N/A,,Overcast,10,2013-11-14 23:53:00
7:53 PM,63.0,57.9,84,30.27,10.0,NNE,6.9,-,N/A,,Overcast,30,2013-11-15 00:53:00
8:43 PM,64.4,57.2,77,30.27,10.0,NNE,6.9,-,N/A,,Scattered Clouds,20,2013-11-15 01:43:00
8:53 PM,64.0,59.0,84,30.27,10.0,NNE,5.8,-,N/A,,Scattered Clouds,20,2013-11-15 01:53:00
9:53 PM,61.0,57.0,87,30.27,10.0,NW,8.1,-,N/A,,Partly Cloudy,320,2013-11-15 02:53:00
10:53 PM,59.0,55.9,90,30.26,10.0,NNW,5.8,-,N/A,,Clear,330,2013-11-15 03:53:00
11:53 PM,57.9,55.0,90,30.24,9.0,Calm,Calm,-,N/A,,Clear,0,2013-11-15 04:53:00